Weather in Ilovay-Dmitriyevskoye

Russia / Tambov Oblast     53°11′56″N   40°20′13″E
temp.,
°C
wind,
m/s
gust,
m/s
humid.,
%
clouds,
%
prec.,
mm/h
press.,
hPa
HPBL,
m
3 march, wed
wed300:00−3wnw4109479 0.2 1009226
03:00−1nw6119381 0.2 1010617
06:00−2nnw71295100 0.5 1012684
09:00−4nnw6139088 0.6 1014547
12:00−3nw6118850 0.0 1016687
15:00−2nw6118459 0.0 1016891
18:00−3w4109188 0.0 1015230
21:00−1w4109591 0.1 1015574
4 march, thu
thu400:00−2w61292100 0.1 1013655
03:00−3wsw61291100 0.1 1011499
06:00−2wsw81595100 0.2 1008564
09:00−1wsw91888100 0.3 1007585
12:00+1wsw81585100 0.0 1005752
15:00+1wsw81489100 0.0 1004848
18:00+1wsw61293100 0.0 1002678
21:00+1wsw51197100 0.1 1002497
5 march, fri
fri500:000w3698100 0.6 1000253
03:000w4799100 1.3 1000333
06:00−4n4996100 0.8 1002365
09:00−5n479596 0.9 1005285
12:00−4nnw359084 0.0 1008367
15:00−4nw348953 0.0 1010379
18:00−6w229190 0.0 101121
21:00−7w228891 0.0 101321
6 march, sat
sat600:00−7wnw2394100 0.0 101347
03:00−9n3489100 0.0 101470
06:00−11nnw338836 0.0 101533
09:00−10nw359118 0.0 1016150
12:00−8nw34900 0.0 1016257
15:00−6nw24890 0.0 1016360
18:00−9wnw239319 0.0 101622
21:00−11nnw339444 0.0 101853
7 march, sun
sun700:00−13nw239090 0.0 101828
03:00−14wsw339045 0.0 101843
06:00−12sw511880 0.0 1015234
09:00−8sw8168042 0.0 1012599
12:00−5sw111775100 0.0 10091067
15:00−4sw121892100 0.4 10041253
18:00−3wsw122092100 0.6 10001256
21:00−2wsw112286100 0.9 9991359